Retour au catalogue

STARLINK-36199

ActifCommunicationsVLEO
NORAD 67213·PAYLOAD·🇺🇸 United States

Lancé Dec 17, 2025 depuis Vandenberg Space Force Base

Loading…

Prochains Passages (prochaines 24 heures)

TLE

FraisSource: CelesTrak SupGP

Époque: Sep 14, 2026, 21:08 UTC

1 67213C 25304X   26257.88104167  .00043498  00000+0  36450-2 0  2574
2 67213  70.0011  57.2584 0003125 272.4202 244.8233 14.98311669    16

Suivez STARLINK-36199 en temps réel avec AllMySat

Download on the App Store